Simultaneous Nadir Overpasses (SNOs) Predictions

Prediction of SNOs between GOES-16 and TERRA Satellite Orbit:

Table of predicted SNOs for the next 14.0 days since TLE Epoch: 6/29/2020
Index Date Time (GOES-16) GOES-16 Lat,Lon TERRA Lat,Lon Distance(km) Time Diff (sec)
1 06/29/2020 15:14:24 -0.01, -75.20 -0.96, -70.82 498.52 80
2 06/30/2020 03:35:48 0.01, -75.19 -0.16, -76.01 92.96 80
3 07/02/2020 03:20:56 -0.02, -75.20 0.43, -73.04 244.75 80
4 07/02/2020 15:42:12 0.02, -75.21 0.63, -78.21 340.03 80
5 07/04/2020 15:30:00 0.01, -75.22 0.02, -75.24 2.51 80
6 07/06/2020 15:20:29 0.01, -75.24 -0.64, -72.29 335.71 80
7 07/07/2020 03:41:53 -0.01, -75.24 -0.47, -77.48 255.12 80
8 07/09/2020 03:27:01 0.00, -75.26 0.14, -74.52 83.97 80
9 07/11/2020 03:14:50 0.02, -75.30 0.82, -71.57 423.87 80
10 07/11/2020 15:36:05 -0.02, -75.32 0.30, -76.72 160.27 80
